Location: Chochol
(49.7771°N, 14.9780°E)
Time: 18:48:00
(UTC+00:00)

Cosmos 2341 Rocket - Pass Details

Date: 09 April 2020
Orbit: 969 x 1004 km, 82.9° (Epoch: 23 May)

Event Time Altitude Azimuth Distance (km) Brightness Sun altitude
Rises 18:57:30 0° 351° (N) 3,736 7.6 -11.8°
Reaches altitude 10° 19:00:03 10° 353° (N) 2,785 6.9 -12.2°
Maximum altitude 19:06:28 75° 79° (ENE) 1,044 4.0 -13.1°
Drops below altitude 10° 19:12:51 10° 165° (SSE) 2,772 6.0 -13.9°
Enters shadow 19:13:28 - 165° (SSE) 3,000 6.1 -14.0°
